Tracking 19817 objects as of 18-Aug-2019
HD Live streaming from Space Station
objects crossing your sky now

THORAD DELTA 1 DEB

Track THORAD DELTA 1 DEB now!
10-day predictions


NORAD ID: 8555
Int'l Code: 1974-089CS
Perigee: 1,410.4 km
Apogee: 1,506.5 km
Inclination: 101.3 °
Period: 114.9 minutes
Semi major axis: 7829 km
RCS: 0.0537 m2 (small)
Launch date: November 15, 1974
Source: United States (US)
Launch site: AIR FORCE WESTERN TEST RANGE (AFWTR)

Note: This is SATELLITE DEBRIS
aabbcc
Your satellite tracking list
Your tracking list is empty




NASA's NSSDC Master Catalog

Two Line Element Set (TLE):
1  8555U 74089CS  19228.77024606 +.00000077 +00000-0 +74516-3 0  9995
2  8555 101.2797 051.8826 0061348 248.9069 179.4230 12.53161017040436
Source of the keplerian elements: AFSPC